Погода в Чернышеве

Россия / Костромская область     57°32′27″N   43°08′18″E
темп.,
°C
ветер,
м/с
пор.,
м/с
влажн.,
%
обл.,
%
осадки,
мм/ч
давл.,
гПа
погр.,
м
18 августа, чт
чт1800:00+17вюв27775 0.0 1022135
03:00+16в268314 0.0 1023106
06:00+16в27811 0.0 1023183
09:00+23в36514 0.0 1024639
12:00+26в34390 0.0 10241632
15:00+27вюв45340 0.0 10231939
18:00+25в37460 0.0 1024406
21:00+19в38710 0.0 1025145
19 августа, пт
пт1900:00+17в311770 0.0 1027297
03:00+15в310720 0.0 1028247
06:00+14в310660 0.0 1029256
09:00+20вюв48420 0.0 1030702
12:00+23вюв57290 0.0 10301351
15:00+24вюв57280 0.0 10301486
18:00+22вюв37410 0.0 1030540
21:00+15вюв38630 0.0 1031137
20 августа, сб
сб2000:00+12в38680 0.0 1031143
03:00+11вюв27710 0.0 1032131
06:00+12вюв28680 0.0 1032174
09:00+20юв36390 0.0 1032508
12:00+25юв35285 0.0 10311428
15:00+26юв3426100 0.0 10301615
18:00+21вюв244797 0.0 103068
21:00+16вюв245965 0.0 103054
21 августа, вс
вс2100:00+14вюв236164 0.0 103047
03:00+12вюв226556 0.0 103130
06:00+12вюв246839 0.0 103081
09:00+21юв24425 0.0 1030488
12:00+25ююв343119 0.0 10291433
15:00+26ююв343180 0.0 10281722
18:00+23ююв114934 0.0 102718
21:00+18юв226794 0.0 102821
22 августа, пн
пн2200:00+17вюв2672100 0.0 102798
03:00+16вюв2578100 0.0 102892
06:00+17юв2677100 0.0 1029133
09:00+24юв2552100 0.0 1029438
12:00+28ююв3539100 0.0 10281578
15:00+29ююз3534100 0.0 10272246
18:00+25вюв0153100 0.0 102712
21:00+21юв3864100 0.0 1028167